Home > Weather > Langfang > Past weeks

Flag for China Past Weather in Langfang, Hebei, China — Yesterday and Last 2 Weeks

Now
84 °F

Sunny.


Feels Like: 82 °F
Forecast: 59 / 88 °F
Wind: 3 mph from North

Location: Beijing Airport

Current Time: Aug 26, 2016 at 1:12:59 PM

Latest Report: Aug 26, 2016 at 12:30 PM


Visibility: 10 mi

Pressure: 30.01 "Hg

Humidity: 23%

Dew Point: 43 °F

Location of LangfangLocation

Past Weather in Langfang — Graph

°F

Langfang Temperature Yesterday

Maximum temperature yesterday: 86 °F (at 3:30 PM)
Minimum temperature yesterday: 64 °F (at 11:30 PM)
Average temperature yesterday: 79 °F

High & Low Weather Summary for the Past Weeks

 TemperatureHumidityPressure
High95 °F (Aug 11, 12:00 PM)100% (Aug 18, 8:00 AM)30.07 "Hg (Aug 18, 8:00 AM)
Low59 °F (Aug 26, 2:30 AM)25% (Aug 25, 5:00 PM)29.53 "Hg (Aug 18, 2:00 PM)
Average80 °F71%29.73 "Hg
* Reported Aug 11 12:00 PM — Aug 26 12:00 PM, Langfang, Weather by CustomWeather, © 2016

Note: Actual official high and low records may vary slightly from our data, if they occured in-between our weather recording intervals... More about our weather records

Advertising

Langfang Weather History for the Previous 24 Hours

Scroll right to see more
 ConditionsComfort  
Time TempWeatherWind HumidityBarometerVisibility
12:00 PM
Fri, Aug 26
84 °FPassing clouds.3 mph25%30.04 "HgN/A
11:30 AM84 °FPassing clouds.6 mph29%30.04 "HgN/A
11:00 AM82 °FPassing clouds.6 mph32%30.07 "HgN/A
10:30 AM82 °FPassing clouds.8 mph32%30.07 "HgN/A
10:00 AM79 °FPassing clouds.8 mph37%30.07 "HgN/A
9:30 AM79 °FSunny.8 mph39%30.07 "Hg10 mi
9:00 AM77 °FSunny.8 mph39%30.07 "Hg10 mi
8:30 AM75 °FSunny.10 mph44%30.07 "Hg10 mi
8:00 AM73 °FSunny.8 mph47%30.07 "Hg10 mi
7:30 AM70 °FSunny.8 mph57%30.07 "Hg10 mi
7:00 AM68 °FSunny.8 mph56%30.07 "Hg10 mi
6:30 AM64 °FSunny.8 mph64%30.07 "Hg10 mi
6:00 AM61 °FSunny.6 mph72%30.07 "Hg10 mi
5:30 AM61 °FClear.6 mph68%30.07 "Hg10 mi
5:00 AM59 °FClear.6 mph77%30.04 "Hg10 mi
4:30 AM59 °FClear.6 mph77%30.04 "Hg10 mi
4:00 AM59 °FClear.3 mph77%30.04 "Hg10 mi
3:30 AM59 °FClear.6 mph77%30.04 "Hg10 mi
3:00 AM59 °FClear.3 mph82%30.04 "Hg10 mi
2:30 AM59 °FClear.1 mph82%30.04 "Hg10 mi
2:00 AM63 °FClear.3 mph64%30.04 "Hg10 mi
1:30 AM63 °FClear.3 mph64%30.04 "Hg10 mi
1:00 AM64 °FClear.3 mph56%30.04 "Hg10 mi
12:30 AM64 °FClear.6 mph56%30.04 "Hg10 mi
12:00 AM66 °FClear.6 mph52%30.04 "Hg10 mi
11:30 PM
Thu, Aug 25
64 °FClear.6 mph56%30.01 "Hg10 mi
11:00 PM66 °FClear.6 mph52%30.01 "Hg10 mi
10:30 PM66 °FClear.6 mph52%30.01 "Hg10 mi
10:00 PM68 °FClear.6 mph49%30.01 "Hg10 mi
9:30 PM70 °FClear.3 mph46%30.01 "Hg10 mi
9:00 PM72 °FClear.3 mph41%29.98 "Hg10 mi
8:30 PM70 °FClear.6 mph43%29.98 "Hg10 mi
8:00 PM73 °FClear.6 mph38%29.98 "Hg10 mi
7:30 PM73 °FClear.6 mph38%29.95 "Hg10 mi
7:00 PM75 °FClear.6 mph36%29.95 "Hg10 mi
6:30 PM79 °FSunny.8 mph30%29.92 "Hg10 mi
6:00 PM81 °FSunny.10 mph28%29.92 "Hg10 mi
5:30 PM82 °FSunny.10 mph28%29.92 "Hg10 mi
5:00 PM84 °FSunny.13 mph25%29.92 "Hg10 mi
4:30 PM84 °FSunny.10 mph29%29.92 "Hg10 mi
4:00 PM86 °FSunny.13 mph27%29.92 "Hg10 mi
3:30 PM86 °FPassing clouds.8 mph29%29.89 "HgN/A
3:00 PM84 °FSunny.13 mph31%29.89 "Hg10 mi
2:30 PM84 °FPassing clouds.17 mph31%29.89 "HgN/A
2:00 PM84 °FPassing clouds.8 mph33%29.89 "HgN/A
1:30 PM84 °FPassing clouds.6 mph40%29.92 "HgN/A
1:00 PM82 °FPassing clouds.6 mph42%29.92 "HgN/A
Weather by CustomWeather, © 2016

See weather overviewHow to use our weather pages